Regional Weather Roundup
Issued by NWS

Home | Current Version | Previous Version | Text Only | Print | Product List | Glossary Off
Versions: 1 2 3 4 5 6 7 8 9 10 11 12 13 14 15 16 17 18 19 20 21 22 23 24 25 26 27 28 29 30 31 32 33 34 35 36 37 38 39 40 41 42 43 44 45 46 47 48 49 50

000
ASUS43 KFSD 112202
RWRSD

WEATHER ROUNDUP FOR SOUTH DAKOTA
NATIONAL WEATHER SERVICE SIOUX FALLS SD
500 PM CDT FRI JUL 11 2014

NOTE: "FAIR" INDICATES FEW OR NO CLOUDS BELOW 12,000 FEET WITH NO
SIGNIFICANT WEATHER AND/OR OBSTRUCTIONS TO VISIBILITY.


SDZ001>005-009-010-012>017-112300-
NORTHWEST AND NORTH CENTRAL SOUTH DAKOTA

CITY           SKY/WX    TMP DP  RH WIND       PRES   REMARKS
BUFFALO          N/A     84  57  39 E14       30.02R
FAITH            N/A     85  62  46 E16       30.03F
MOBRIDGE       MOSUNNY   87  63  44 E6        29.96F
$$

SDZ012>016-024>037-041>051-057-063-072>074-112300-
SOUTHWEST AND SOUTH CENTRAL SOUTH DAKOTA

CITY           SKY/WX    TMP DP  RH WIND       PRES   REMARKS
RAPID CTY ARPT LGT RAIN  74  64  71 CALM      30.05F
PIERRE         MOSUNNY   93  65  39 NE5       29.94S HX  95
CUSTER         LGT RAIN  63  57  81 VRB6      30.22R
PHILIP         PTSUNNY   88  64  44 E9        29.97F
PINE RIDGE     PTSUNNY   83  62  49 E13       30.01F
WINNER         FAIR      91  64  40 NE13G18   29.96S
$$

SDZ004>011-016>023-039-040-112300-
NORTHEAST SOUTH DAKOTA

CITY           SKY/WX    TMP DP  RH WIND       PRES   REMARKS
ABERDEEN       PTSUNNY   85  68  56 NE8       29.96S
WATERTOWN      MOSUNNY   89  64  43 NW5       29.95S
SISSETON         N/A     86  69  56 N8        29.93R
$$

SDZ017-020-022-023-036>040-048>070-112300-
SOUTHEAST SOUTH DAKOTA

CITY           SKY/WX    TMP DP  RH WIND       PRES   REMARKS
SIOUX FALLS    CLOUDY    84  71  65 CALM      29.97S
HURON          SUNNY     93  63  36 N8        29.92S
CHAMBERLAIN    PTSUNNY   89  63  41 E8        29.95S
MITCHELL       MOSUNNY   88  74  63 SE6       29.94S HX  96
YANKTON        PTSUNNY   81  73  78 SE8       29.96F
$$

ABBREVIATIONS USED IN REMARKS
   TC - TEMPERATURE IN CELSIUS
  WCI - WIND CHILL INDEX
   HX - HEAT INDEX
  VSB - VISIBILITY




USA.gov is the U.S. government's official web portal to all federal, state and local government web resources and services.